CW7693 Weather Reports


Display with metric or nautical units.
time (UTC)temp
F
wind
direction
speed
MPH
gust
MPH
rain 1hr
in
rain 24hr
in
rain mn
in
humidity
%
barometer
mb
20260505121502 62 360 4.0 10.0 0.00 0.00 0.00 65 1005.6
20260505114502 62 360 4.0 11.0 0.00 0.00 0.00 64 1005.7
20260505113102 62 267 3.0 7.0 0.00 0.00 0.00 63 1005.8
20260505111502 61 138 2.0 4.0 0.00 0.00 0.00 61 1005.9
20260505110106 60 173 2.0 8.0 0.00 0.00 0.00 62 1005.9
20260505101503 62 360 2.0 6.0 0.00 0.00 0.00 60 1006.1
20260505094505 61 360 2.0 5.0 0.00 0.00 0.00 61 1006.0
20260505093003 60 295 3.0 6.0 0.00 0.00 0.00 61 1006.1
20260505091603 59 350 2.0 5.0 0.00 0.00 0.00 63 1006.3
20260505090104 58 360 2.0 5.0 0.00 0.00 0.00 62 1006.4
20260505084503 58 27 0.0 4.0 0.00 0.00 0.00 60 1006.5
20260505083102 57 286 0.0 4.0 0.00 0.00 0.00 59 1006.7
20260505081504 57 11 1.0 4.0 0.00 0.00 0.00 61 1006.8
20260505080103 56 355 0.0 2.0 0.00 0.00 0.00 57 1007.0
20260505074503 54 360 0.0 2.0 0.00 0.00 0.00 59 1007.1
20260505073112 54 360 0.0 2.0 0.00 0.00 0.00 61 1007.3
20260505071502 53 130 1.0 4.0 0.00 0.00 0.00 62 1007.2
20260505070104 53 360 2.0 4.0 0.00 0.00 0.00 63 1007.4
20260505064502 51 360 0.0 3.0 0.00 0.00 0.00 70 1007.5
20260505063102 49 360 1.0 3.0 0.00 0.00 0.00 73 1007.7
20260505061508 47 360 2.0 3.0 0.00 0.00 0.00 77 1007.8
20260505054503 44 141 2.0 6.0 0.00 0.00 0.00 81 1008.1
20260505053102 44 169 2.0 5.0 0.00 0.00 0.00 83 1008.0
20260505051503 42 162 1.0 4.0 0.00 0.00 0.00 84 1007.9
20260505041503 43 142 0.0 2.0 0.00 0.00 0.00 82 1008.1
20260505034502 43 142 0.0 2.0 0.00 0.00 0.00 81 1008.1
20260505033102 44 141 1.0 2.0 0.00 0.00 0.00 82 1008.2
20260505031501 44 142 1.0 3.0 0.00 0.00 0.00 81 1008.3
20260505024506 44 133 3.0 5.0 0.00 0.00 0.00 81 1008.4
20260505023102 45 144 0.0 2.0 0.00 0.00 0.00 80 1008.6
20260505021613 45 144 1.0 3.0 0.00 0.00 0.00 81 1008.7
20260505020002 45 143 1.0 4.0 0.00 0.00 0.00 81 1008.9
20260505014603 45 138 0.0 3.0 0.00 0.00 0.00 81 1008.9
20260505013002 46 146 0.0 1.0 0.00 0.00 0.00 80 1009.0
20260505011602 46 146 0.0 3.0 0.00 0.00 0.00 81 1009.2
20260505010003 46 144 0.0 2.0 0.00 0.00 0.00 83 1009.3
20260505004506 46 142 1.0 3.0 0.00 0.00 0.00 82 1009.3
20260505003102 47 132 0.0 1.0 0.00 0.00 0.00 81 1009.6
20260505001502 47 132 0.0 2.0 0.00 0.00 0.00 81 1009.6
20260505000107 48 132 0.0 1.0 0.00 0.00 0.00 81 1009.6
20260504234502 48 132 0.0 2.0 0.00 0.00 0.00 80 1009.8
20260504233107 49 132 0.0 2.0 0.00 0.00 0.00 79 1010.0
20260504231502 50 132 0.0 0.0 0.00 0.00 0.00 78 1010.0
20260504230108 50 132 0.0 0.0 0.00 0.00 0.00 77 1010.2
20260504224506 51 130 0.0 0.0 0.00 0.00 0.00 76 1010.2
20260504223104 52 130 0.0 0.0 0.00 0.00 0.00 76 1010.2
20260504221502 52 130 0.0 2.0 0.00 0.00 0.00 75 1010.2
20260504220136 53 130 0.0 3.0 0.00 0.00 0.00 74 1010.1
20260504214503 53 38 0.0 2.0 0.00 0.00 0.00 71 1010.2
20260504213128 54 38 1.0 2.0 0.00 0.00 0.00 70 1010.2
20260504211504 54 44 1.0 3.0 0.00 0.00 0.00 71 1010.2
20260504210104 54 27 1.0 3.0 0.00 0.00 0.00 71 1010.1
20260504204505 55 63 1.0 5.0 0.00 0.00 0.00 70 1010.1
20260504203103 56 27 2.0 5.0 0.00 0.00 0.00 68 1010.1
20260504201502 57 22 3.0 7.0 0.00 0.00 0.00 66 1009.9
20260504200113 58 35 3.0 6.0 0.00 0.00 0.00 68 1009.8
20260504194504 58 13 2.0 7.0 0.00 0.00 0.00 66 1009.8
20260504193104 60 26 2.0 6.0 0.00 0.00 0.00 62 1009.6
20260504191504 62 360 2.0 4.0 0.00 0.00 0.00 54 1009.8
20260504184503 63 360 2.0 5.0 0.00 0.00 0.00 44 1010.2
20260504183105 64 360 3.0 6.0 0.00 0.00 0.00 44 1010.3
20260504181502 64 60 1.0 5.0 0.00 0.00 0.00 63 1010.2
20260504174502 66 360 2.0 6.0 0.00 0.00 0.00 52 1009.7
20260504173105 67 348 3.0 12.0 0.00 0.00 0.00 49 1009.6
20260504171502 68 340 2.0 6.0 0.00 0.00 0.00 47 1009.4
20260504170106 68 360 2.0 5.0 0.00 0.00 0.00 48 1009.3
20260504160106 69 317 4.0 10.0 0.00 0.00 0.00 46 1009.1
20260504150105 71 301 3.0 9.0 0.00 0.00 0.00 42 1008.9